Regional Weather Roundup
Issued by NWS San Angelo, TX

Home | Current Version | Previous Version | Text Only | Print | Product List | Glossary On
Versions: 1 2 3 4 5 6 7 8 9 10 11 12 13 14 15 16 17 18 19 20 21 22 23 24 25 26 27 28 29 30 31 32 33 34 35 36 37 38 39 40 41 42 43 44 45 46 47 48 49 50
000
ASUS44 KSJT 060002
RWRSJT
WEST CENTRAL TEXAS REGIONAL WEATHER ROUNDUP
NATIONAL WEATHER SERVICE SAN ANGELO TX
700 PM CDT SUN JUL 05 2015

NOTE: "FAIR" INDICATES FEW OR NO CLOUDS BELOW 12,000 FEET WITH NO
SIGNIFICANT WEATHER AND/OR OBSTRUCTIONS TO VISIBILITY.

TXZ049-054-064>066-071>073-076>078-098-099-113-114-127-128-139-140-
154-155-168>170-060100
...LOCATIONS ACROSS WEST CENTRAL TEXAS...

CITY           SKY/WX    TMP DP  RH WIND       PRES   REMARKS
SAN ANGELO     SUNNY     91  63  39 S10       29.92F
ABILENE        MOSUNNY   90  62  39 S15G24    29.92S
DYESS AFB      MOSUNNY   89  67  47 S16       29.90S
JUNCTION       SUNNY     87  65  47 S15       29.95S
SWEETWATER     NOT AVBL
BROWNWOOD      NOT AVBL
COLEMAN        NOT AVBL
SONORA         NOT AVBL
OZONA          NOT AVBL
BRADY          NOT AVBL
$$

TEXAS PANHANDLE/OKLAHOMA PANHANDLE

CITY           SKY/WX    TMP DP  RH WIND       PRES   REMARKS
AMARILLO       MOSUNNY   88  56  33 S16       29.94F
BORGER         SUNNY     91  61  36 S13G23    29.90F
CANADIAN       SUNNY     91  67  45 S16       29.87F
DALHART        PTSUNNY   92  57  30 S20       29.92F
DUMAS          PTCLDY    87  55  33 S17       29.92F
GUYMON         NOT AVBL
HEREFORD       NOT AVBL
PAMPA          NOT AVBL
PERRYTON       NOT AVBL
$$

SOUTHERN PANHANDLE/SOUTH PLAINS/ROLLING PLAINS

CITY           SKY/WX    TMP DP  RH WIND       PRES   REMARKS
LUBBOCK        PTSUNNY   91  63  39 S14       29.94S
SNYDER         NOT AVBL
CHILDRESS      SUNNY     90  65  43 S14       29.87F
SEMINOLE       NOT AVBL
$$

PERMIAN BASIN

CITY           SKY/WX    TMP DP  RH WIND       PRES   REMARKS
MIDLAND        SUNNY     92  64  39 S20G26    29.91S
ODESSA         SUNNY     90  64  42 S23       29.93S
WINK           MOSUNNY   93  64  38 SE17G25   29.87F
$$

FAR WEST/SOUTHWEST MOUNTAINS/TRANS PECOS

CITY           SKY/WX    TMP DP  RH WIND       PRES   REMARKS
ALPINE         MOCLDY    86  57  37 S8        30.09S
DRYDEN           N/A     90  66  45 S10G21    29.93R
EL PASO        MOSUNNY   90  58  33 W14       29.95F
FORT STOCKTON  CLOUDY    88  64  44 S15       29.93F
GUADALUPE PASS LGT RAIN  83  59  44 SW12      30.10F
MARFA          PTSUNNY  N/A N/A N/A SE9       30.08S
PECOS          NOT AVBL
$$

DALLAS/FORT WORTH METROPLEX

CITY           SKY/WX    TMP DP  RH WIND       PRES   REMARKS
DFW AIRPORT    MOSUNNY   91  67  44 S18G25    29.91F
FTW MEACHAM    SUNNY     91  68  46 S17G26    29.90F
DAL-EXECUTIVE  MOSUNNY   89  69  51 S9G24     29.92F
GRAND PRAIRIE  SUNNY     90  70  51 S12G18    29.93F
ADDISON        MOSUNNY   91  64  40 S16G24    29.94F
MESQUITE       PTCLDY    90  68  48 S8        29.94S
LANCASTER      PTCLDY    89  68  49 S12       29.94S HAZE
$$

NORTH CENTRAL TEXAS

CITY           SKY/WX    TMP DP  RH WIND       PRES   REMARKS
SHRMAN/DENISON NOT AVBL
GAINESVILLE    NOT AVBL
BRIDGEPORT     CLEAR     90  69  48 S13G18    29.92F
DENTON         MOSUNNY   89  69  51 S14       29.91F
WAXAHACHIE     CLEAR     89  72  57 SE10G18   29.94F
GRANBURY       NOT AVBL
$$

WESTERN NORTH TEXAS

CITY           SKY/WX    TMP DP  RH WIND       PRES   REMARKS
WICHITA FALLS  SUNNY     91  67  44 S20       29.86F
VERNON         PTCLDY    96  56  26 S17       29.86F
BRECKENRIDGE   NOT AVBL
COMANCHE       PTSUNNY   89  66  45 S10G16    29.94S
$$

CENTRAL AND SOUTH CENTRAL TEXAS

CITY           SKY/WX    TMP DP  RH WIND       PRES   REMARKS
AUSTIN/BERGSTM MOSUNNY   87  72  60 S16G23    29.94F
WACO           MOSUNNY   90  70  51 S18       29.93F
HILLSBORO      NOT AVBL
TEMPLE         MOSUNNY   88  70  55 S20G30    29.93F
KILLEEN-GRAY   SUNNY     87  71  57 SE22      29.94F
FORT HOOD      SUNNY     89  71  54 S21       29.93F
GEORGETOWN     MOSUNNY   88  70  55 S9G17     29.93F
LAGO VISTA     NOT AVBL
SAN MARCOS     SUNNY     88  70  55 SE17G23   29.95F
NEW BRAUNFELS  MOSUNNY   89  72  56 S18       29.93F
RANDOLPH AFB   MOSUNNY   88  72  59 S14       29.94F
SAN ANTONIO    MOSUNNY   88  71  57 SE16      29.94F
STINSON        MOSUNNY   89  72  56 SE15      29.91F
PLEASANTON     NOT AVBL
LA GRANGE      NOT AVBL
GIDDINGS       NOT AVBL
$$

EAST TEXAS

CITY           SKY/WX    TMP DP  RH WIND       PRES   REMARKS
PARIS          SUNNY     90  72  55 S12       29.95F
CLARKSVILLE    NOT AVBL
TYLER          MOSUNNY   90  71  53 S9        29.98R
LONGVIEW       MOSUNNY   93  74  53 S10       29.98R
PALESTINE      PTCLDY    90  71  53 S8        29.98S
NACOGDOCHES    MOSUNNY   90  72  55 S7        30.00R
$$

TEXAS HILL COUNTRY AND EDWARDS PLATEAU

CITY           SKY/WX    TMP DP  RH WIND       PRES   REMARKS
LLANO          NOT AVBL
HORSESHOE BAY  FAIR      90  70  51 S12G17    29.95S
KERRVILLE      MOSUNNY   84  71  65 SE16G24   29.98S
FREDERICKSBRG  NOT AVBL
ROCKSPRINGS    NOT AVBL
HONDO          LGT RAIN  88  71  57 SE17G26   29.94S
UVALDE         CLEAR     87  71  59 SE8       29.93R
DEL RIO        SUNNY     91  67  44 SE18G25   29.89S
$$

SOUTHEAST TEXAS

CITY           SKY/WX    TMP DP  RH WIND       PRES   REMARKS
COLLEGE STN    SUNNY     88  72  58 S12G20    29.96F
CALDWELL       NOT AVBL
CROCKETT       NOT AVBL
BRENHAM        NOT AVBL
HUNTSVILLE     SUNNY     90  72  55 S8        29.98F
CONROE         MOSUNNY   89  71  55 S12       29.99R
HOUSTON BUSH   MOSUNNY   89  73  59 S9        29.98S
HOUSTON HOBBY  PTSUNNY   88  75  65 S9        29.99S
PERLAND        SUNNY     89  74  60 S10       30.01S
WHARTON        NOT AVBL
$$

THE UPPER TEXAS COAST

CITY           SKY/WX    TMP DP  RH WIND       PRES   REMARKS
ORANGE         PTCLDY    86  70  57 S8        30.05S
PORT ARTHUR    SUNNY     86  75  69 S12       30.03R
GALVESTON      MOSUNNY   86  78  77 S15       30.02S
ANGLETON       PTSUNNY   87  76  69 S12       30.00F
BAY CITY       NOT AVBL
$$

TEXAS COASTAL BEND, RIO GRANDE PLAINS DEEP SOUTH TEXAS

CITY           SKY/WX    TMP DP  RH WIND       PRES   REMARKS
VICTORIA       MOSUNNY   86  75  69 S18       29.96F
BEEVILLE       NOT AVBL
ROCKPORT       LGT RAIN  86  76  71 SE17G25   29.95F
PORT ARANSAS   NOT AVBL
PORT LAVACA    NOT AVBL
CORPUS CHRISTI MOSUNNY   86  75  69 SE23G31   29.94F
KINGSVILLE NAS MOSUNNY   87  79  76 SE25G35   29.93S
COTULLA        LGT RAIN  92  71  50 SE16G28   29.89S
LAREDO         MOSUNNY   95  71  45 SE20      29.89R
BROWNSVILLE    PTSUNNY   86  77  74 SE22G28   29.95S
PORT ISABEL    PTSUNNY   85  78  80 SE20G25   29.95F HAZE
HEBBRONVILLE   NOT AVBL
MCALLEN        MOSUNNY   91  74  57 SE23G31   29.92R
WESLACO        NOT AVBL
FALFURRIAS     PTCLDY    90  74  58 SE10G20   29.91S
EDINBURG       PTCLDY    91  72  55 SE18G24   29.92R
$$



USA.gov is the U.S. government's official web portal to all federal, state and local government web resources and services.